Flag for U.S.A. Weather past 2 weeks in French Lick, Indiana, U.S.A.

Now
66 °F

Low clouds.


Feels Like: 66 °F
Forecast: 63 / 83 °F
Wind: 5 mph from South

Location: Huntingburg Airport

Current Time: May 28, 2015 at 8:25:48 AM

Latest Report: May 28, 2015 at 7:55 AM


Visibility: 0 mi

Pressure: 30.19 "Hg

Humidity: 88%

Dew point: 63 °F

Location of French LickLocation

Historic Weather in French Lick — Graph

°F

French Lick temperature yesterday

Maximum temperature yesterday: 79 °F (at 2:35 PM)
Minimum temperature yesterday: 61 °F (at 6:55 AM)
Average temperature yesterday: 70 °F

Past Weeks' High & Low Weather Summary

 TemperatureHumidityPressure
High86 °F (May 15, 5:35 PM)94% (May 28, 4:15 AM)30.41 "Hg (May 28, 4:15 AM)
Low43 °F (May 22, 4:35 AM)32% (May 23, 3:55 PM)29.97 "Hg (May 26, 4:15 PM)
Average66 °F71%30.15 "Hg
* Reported May 13 7:15 AM — May 28 7:35 AM, French Lick, Weather by CustomWeather, © 2015

Note: Actual official high and low records may vary slightly from our data, if they occured in-between our weather recording intervals... More about our weather records

Advertising

French Lick weather history for previous 24 hours

 ConditionsComfort  
Time TempWeatherWind HumidityBarometerVisibility
7:35 AM
Thu, May 28
64 °FLow clouds.6 mph94%30.18 "Hg0 mi
6:55 AM64 °FLow clouds.5 mph88%30.18 "Hg1 mi
6:35 AM63 °FLow clouds.3 mph94%30.18 "Hg0 mi
6:15 AM64 °FLow clouds.No wind88%30.17 "Hg1 mi
5:55 AM63 °FPassing clouds.No wind94%30.17 "Hg1 mi
5:35 AM63 °FPassing clouds.No wind88%30.17 "Hg1 mi
5:15 AM63 °FClear.3 mph94%30.17 "Hg4 mi
4:55 AM64 °FPassing clouds.3 mph88%30.16 "Hg4 mi
4:35 AM64 °FPassing clouds.3 mph88%30.16 "Hg3 mi
4:15 AM63 °FPassing clouds.No wind94%30.16 "Hg2 mi
3:55 AM64 °FPassing clouds.No wind88%30.16 "Hg7 mi
3:35 AM64 °FPassing clouds.No wind88%30.17 "Hg8 mi
3:15 AM64 °FClear.No wind88%30.16 "Hg10 mi
2:55 AM64 °FClear.No wind88%30.16 "Hg10 mi
2:35 AM64 °FClear.3 mph88%30.16 "Hg10 mi
2:15 AM66 °FClear.3 mph83%30.16 "Hg10 mi
1:55 AM64 °FClear.5 mph88%30.16 "Hg10 mi
1:35 AM64 °FClear.3 mph88%30.16 "Hg10 mi
1:15 AM66 °FClear.5 mph83%30.16 "Hg10 mi
12:55 AM66 °FClear.3 mph83%30.16 "Hg10 mi
12:35 AM66 °FClear.5 mph83%30.15 "Hg10 mi
12:15 AM66 °FClear.5 mph83%30.15 "Hg10 mi
11:35 PM
Wed, May 27
66 °FClear.6 mph83%30.14 "Hg10 mi
11:15 PM66 °FClear.6 mph83%30.14 "Hg10 mi
10:55 PM66 °FClear.6 mph83%30.14 "Hg10 mi
10:35 PM68 °FClear.6 mph78%30.13 "Hg10 mi
10:15 PM68 °FClear.7 mph78%30.13 "Hg10 mi
9:55 PM70 °FSunny.9 mph73%30.12 "Hg10 mi
9:35 PM70 °FSunny.7 mph73%30.12 "Hg10 mi
9:15 PM70 °FSunny.6 mph78%30.12 "Hg10 mi
8:55 PM72 °FSunny.8 mph73%30.11 "Hg10 mi
8:35 PM72 °FSunny.7 mph73%30.11 "Hg10 mi
8:15 PM73 °FSunny.8 mph69%30.11 "Hg10 mi
7:55 PM73 °FSunny.6 mph69%30.11 "Hg10 mi
7:35 PM73 °FSunny.8 mph69%30.10 "Hg10 mi
7:15 PM75 °FSunny.10 mph65%30.09 "Hg10 mi
6:55 PM75 °FSunny.8 mph69%30.09 "Hg10 mi
6:35 PM75 °FSunny.9 mph69%30.08 "Hg10 mi
6:15 PM75 °FSunny.12 mph69%30.09 "Hg10 mi
5:55 PM75 °FSunny.16 mph69%30.09 "Hg10 mi
5:35 PM75 °FSunny.10 mph69%30.09 "Hg10 mi
5:15 PM75 °FSunny.14 mph69%30.09 "Hg10 mi
4:55 PM77 °FSunny.12 mph65%30.10 "Hg10 mi
4:35 PM77 °FSunny.13 mph65%30.10 "Hg10 mi
4:15 PM77 °FSunny.12 mph65%30.10 "Hg10 mi
3:55 PM79 °FSunny.10 mph61%30.09 "Hg10 mi
3:35 PM79 °FSunny.10 mph61%30.08 "Hg10 mi
3:15 PM79 °FSunny.13 mph65%30.08 "Hg10 mi
2:55 PM79 °FSunny.12 mph61%30.09 "Hg10 mi
2:35 PM79 °FSunny.14 mph65%30.08 "Hg10 mi
2:15 PM77 °FSunny.14 mph69%30.07 "Hg10 mi
1:55 PM77 °FSunny.14 mph69%30.08 "Hg10 mi
1:35 PM75 °FPassing clouds.9 mph74%30.09 "Hg10 mi
1:15 PM73 °FBroken clouds.5 mph74%30.11 "Hg10 mi
12:55 PM72 °FMostly cloudy.6 mph78%30.13 "Hg10 mi
12:35 PM73 °FThundershowers. Broken clouds.7 mph74%30.14 "Hg10 mi
12:15 PM75 °FPartly sunny.8 mph74%30.13 "Hg10 mi
11:55 AM75 °FCloudy.12 mph74%30.13 "Hg10 mi
11:35 AM75 °FPartly sunny.10 mph74%30.12 "Hg10 mi
11:15 AM75 °FMostly cloudy.10 mph74%30.12 "Hg10 mi
10:55 AM73 °FOvercast.14 mph74%30.12 "Hg10 mi
10:35 AM73 °FPartly sunny.13 mph78%30.12 "Hg10 mi
10:15 AM73 °FScattered clouds.8 mph74%30.11 "Hg10 mi
9:55 AM72 °FBroken clouds.6 mph78%30.12 "Hg10 mi
9:35 AM70 °FSunny.9 mph83%30.12 "Hg10 mi
9:15 AM70 °FSunny.9 mph78%30.13 "Hg10 mi
8:55 AM68 °FSunny.8 mph83%30.12 "Hg10 mi
8:35 AM66 °FSunny.7 mph88%30.13 "Hg10 mi
8:15 AM66 °FSunny.10 mph83%30.12 "Hg10 mi
Weather by CustomWeather, © 2015

See weather overviewHow to use our weather pages